| time (UTC) | temp F | wind direction | speed MPH | gust MPH | rain 1hr in | rain 24hr in | rain mn in | humidity % | barometer mb |
| 20260502140127 | 48 | 273 | 7.0 | 10.0 | 0.00 | 0.00 | 0.00 | 56 | 1019.6 |
| 20260502123043 | 37 | 0 | 0.0 | 1.0 | 0.00 | 0.00 | 0.00 | 73 | 1020.1 |
| 20260502121547 | 37 | 0 | 0.0 | 1.0 | 0.00 | 0.00 | 0.00 | 69 | 1019.9 |
| 20260502114550 | 34 | 262 | 0.0 | 2.0 | 0.00 | 0.00 | 0.00 | 74 | 1020.0 |
| 20260502113053 | 33 | 0 | 0.0 | 1.0 | 0.00 | 0.00 | 0.00 | 76 | 1019.9 |
| 20260502111551 | 33 | 0 | 0.0 | 1.0 | 0.00 | 0.00 | 0.00 | 76 | 1019.9 |
| 20260502110058 | 33 | 262 | 0.0 | 1.0 | 0.00 | 0.00 | 0.00 | 76 | 1020.0 |
| 20260502104550 | 33 | 0 | 0.0 | 2.0 | 0.00 | 0.00 | 0.00 | 76 | 1019.9 |
| 20260502103053 | 34 | 262 | 0.0 | 3.0 | 0.00 | 0.00 | 0.00 | 74 | 1020.0 |
| 20260502101557 | 34 | 262 | 1.0 | 2.0 | 0.00 | 0.00 | 0.00 | 73 | 1020.1 |
| 20260502090112 | 35 | 276 | 1.0 | 2.0 | 0.00 | 0.00 | 0.00 | 72 | 1019.9 |
| 20260502070105 | 37 | 0 | 0.0 | 1.0 | 0.00 | 0.00 | 0.00 | 68 | 1020.3 |
| 20260502064557 | 35 | 0 | 0.0 | 0.0 | 0.00 | 0.00 | 0.00 | 71 | 1020.3 |
| 20260502063050 | 36 | 0 | 0.0 | 0.0 | 0.00 | 0.00 | 0.00 | 69 | 1020.5 |
| 20260502061543 | 37 | 0 | 0.0 | 0.0 | 0.00 | 0.00 | 0.00 | 66 | 1020.5 |
| 20260502060038 | 38 | 0 | 0.0 | 1.0 | 0.00 | 0.00 | 0.00 | 65 | 1020.5 |
| 20260502054555 | 37 | 0 | 0.0 | 0.0 | 0.00 | 0.00 | 0.00 | 66 | 1020.6 |
| 20260502053044 | 38 | 0 | 0.0 | 0.0 | 0.00 | 0.00 | 0.00 | 63 | 1020.5 |
| 20260502051548 | 40 | 0 | 0.0 | 2.0 | 0.00 | 0.00 | 0.00 | 60 | 1020.4 |
| 20260502050042 | 40 | 41 | 1.0 | 2.0 | 0.00 | 0.00 | 0.00 | 60 | 1020.5 |
| 20260502044542 | 40 | 40 | 1.0 | 2.0 | 0.00 | 0.00 | 0.00 | 62 | 1020.6 |
| 20260502043039 | 39 | 40 | 1.0 | 2.0 | 0.00 | 0.00 | 0.00 | 63 | 1020.6 |
| 20260502041553 | 40 | 41 | 1.0 | 2.0 | 0.00 | 0.00 | 0.00 | 62 | 1020.6 |
| 20260502040048 | 40 | 41 | 1.0 | 2.0 | 0.00 | 0.00 | 0.00 | 61 | 1020.5 |
| 20260502034547 | 40 | 41 | 0.0 | 1.0 | 0.00 | 0.00 | 0.00 | 62 | 1020.4 |
| 20260502033050 | 41 | 41 | 1.0 | 1.0 | 0.00 | 0.00 | 0.00 | 61 | 1020.3 |
| 20260502031555 | 42 | 0 | 0.0 | 1.0 | 0.00 | 0.00 | 0.00 | 58 | 1020.1 |
| 20260502030053 | 43 | 0 | 0.0 | 2.0 | 0.00 | 0.00 | 0.00 | 57 | 1020.1 |
| 20260502024558 | 43 | 41 | 0.0 | 2.0 | 0.00 | 0.00 | 0.00 | 56 | 1020.1 |
| 20260502023106 | 44 | 41 | 0.0 | 3.0 | 0.00 | 0.00 | 0.00 | 55 | 1019.8 |
| 20260502021541 | 44 | 41 | 0.0 | 1.0 | 0.00 | 0.00 | 0.00 | 55 | 1019.9 |
| 20260502020050 | 45 | 77 | 1.0 | 4.0 | 0.00 | 0.00 | 0.00 | 55 | 1019.8 |
| 20260502014545 | 46 | 27 | 2.0 | 5.0 | 0.00 | 0.00 | 0.00 | 53 | 1019.7 |
| 20260502013044 | 47 | 0 | 0.0 | 3.0 | 0.00 | 0.00 | 0.00 | 52 | 1019.4 |
| 20260502011542 | 49 | 38 | 1.0 | 5.0 | 0.00 | 0.00 | 0.00 | 48 | 1019.3 |
| 20260502010047 | 50 | 87 | 3.0 | 7.0 | 0.00 | 0.00 | 0.00 | 46 | 1019.3 |
| 20260502004546 | 51 | 66 | 4.0 | 12.0 | 0.00 | 0.00 | 0.00 | 44 | 1019.0 |
| 20260502003045 | 52 | 322 | 7.0 | 11.0 | 0.00 | 0.00 | 0.00 | 42 | 1019.1 |
| 20260502001551 | 52 | 38 | 6.0 | 12.0 | 0.00 | 0.00 | 0.00 | 42 | 1019.0 |
| 20260502000101 | 52 | 334 | 8.0 | 15.0 | 0.00 | 0.00 | 0.00 | 41 | 1019.0 |
| 20260501234547 | 53 | 345 | 7.0 | 13.0 | 0.00 | 0.00 | 0.00 | 41 | 1019.1 |
| 20260501233046 | 52 | 65 | 4.0 | 13.0 | 0.00 | 0.00 | 0.00 | 43 | 1018.9 |
| 20260501231543 | 53 | 25 | 6.0 | 16.0 | 0.00 | 0.00 | 0.00 | 41 | 1018.9 |
| 20260501230042 | 53 | 23 | 5.0 | 11.0 | 0.00 | 0.00 | 0.00 | 44 | 1018.8 |
| 20260501224559 | 53 | 79 | 7.0 | 12.0 | 0.00 | 0.00 | 0.00 | 42 | 1018.8 |
| 20260501223038 | 52 | 82 | 5.0 | 14.0 | 0.00 | 0.00 | 0.00 | 43 | 1018.8 |
| 20260501221546 | 52 | 66 | 7.0 | 14.0 | 0.00 | 0.00 | 0.00 | 43 | 1018.9 |
| 20260501220043 | 51 | 332 | 5.0 | 11.0 | 0.00 | 0.00 | 0.00 | 44 | 1018.9 |
| 20260501214545 | 52 | 63 | 7.0 | 17.0 | 0.00 | 0.00 | 0.00 | 44 | 1018.7 |
| 20260501213046 | 52 | 42 | 5.0 | 10.0 | 0.00 | 0.00 | 0.00 | 46 | 1018.9 |
| 20260501211549 | 52 | 359 | 5.0 | 15.0 | 0.00 | 0.00 | 0.00 | 42 | 1018.8 |
| 20260501210038 | 52 | 90 | 5.0 | 11.0 | 0.00 | 0.00 | 0.00 | 44 | 1019.1 |
| 20260501204546 | 52 | 316 | 7.0 | 16.0 | 0.00 | 0.00 | 0.00 | 46 | 1019.0 |
| 20260501203043 | 51 | 61 | 6.0 | 13.0 | 0.00 | 0.00 | 0.00 | 43 | 1019.2 |
| 20260501201540 | 51 | 44 | 6.0 | 12.0 | 0.00 | 0.00 | 0.00 | 44 | 1019.5 |
| 20260501200049 | 51 | 3 | 5.0 | 15.0 | 0.00 | 0.00 | 0.00 | 46 | 1019.3 |
| 20260501194555 | 51 | 49 | 4.0 | 14.0 | 0.00 | 0.00 | 0.00 | 47 | 1019.4 |
| 20260501193045 | 50 | 70 | 7.0 | 13.0 | 0.00 | 0.00 | 0.00 | 48 | 1019.5 |
| 20260501191550 | 51 | 51 | 5.0 | 13.0 | 0.00 | 0.00 | 0.00 | 48 | 1019.6 |
| 20260501190043 | 49 | 32 | 6.0 | 11.0 | 0.00 | 0.00 | 0.00 | 49 | 1019.6 |
| 20260501184545 | 50 | 342 | 4.0 | 15.0 | 0.00 | 0.00 | 0.00 | 52 | 1019.5 |
| 20260501183049 | 48 | 91 | 6.0 | 14.0 | 0.00 | 0.00 | 0.00 | 52 | 1019.6 |
| 20260501181539 | 49 | 39 | 4.0 | 14.0 | 0.00 | 0.00 | 0.00 | 51 | 1019.6 |
| 20260501180050 | 48 | 60 | 5.0 | 15.0 | 0.00 | 0.00 | 0.00 | 52 | 1019.6 |
| 20260501174546 | 47 | 296 | 5.0 | 13.0 | 0.00 | 0.00 | 0.00 | 52 | 1019.8 |
| 20260501173110 | 46 | 323 | 5.0 | 17.0 | 0.00 | 0.00 | 0.00 | 54 | 1019.7 |
| 20260501171542 | 46 | 337 | 7.0 | 13.0 | 0.00 | 0.00 | 0.00 | 53 | 1019.7 |
| 20260501170045 | 45 | 72 | 8.0 | 20.0 | 0.00 | 0.00 | 0.00 | 55 | 1019.7 |
| 20260501164601 | 45 | 338 | 9.0 | 16.0 | 0.00 | 0.00 | 0.00 | 53 | 1019.6 |
| 20260501163045 | 44 | 314 | 11.0 | 18.0 | 0.00 | 0.00 | 0.00 | 59 | 1019.6 |
| 20260501161544 | 44 | 316 | 11.0 | 18.0 | 0.00 | 0.00 | 0.00 | 57 | 1019.6 |
| 20260501160043 | 44 | 323 | 8.0 | 18.0 | 0.00 | 0.00 | 0.00 | 57 | 1019.6 |
| 20260501154555 | 44 | 311 | 7.0 | 20.0 | 0.00 | 0.00 | 0.00 | 60 | 1019.6 |
| 20260501153047 | 44 | 300 | 11.0 | 20.0 | 0.00 | 0.00 | 0.00 | 55 | 1019.7 |
| 20260501151548 | 44 | 327 | 9.0 | 19.0 | 0.00 | 0.00 | 0.00 | 57 | 1019.6 |
| 20260501150046 | 44 | 340 | 12.0 | 18.0 | 0.00 | 0.00 | 0.00 | 56 | 1019.5 |
| 20260501144606 | 43 | 335 | 10.0 | 18.0 | 0.00 | 0.00 | 0.00 | 59 | 1019.5 |
| 20260501143049 | 43 | 337 | 9.0 | 16.0 | 0.00 | 0.00 | 0.00 | 61 | 1019.6 |